Regional Weather Roundup
Issued by NWS

Home | Current Version | Previous Version | Text Only | Print | Product List | Glossary Off
Versions: 1 2 3 4 5 6 7 8 9 10 11 12 13 14 15 16 17 18 19 20 21 22 23 24 25 26 27 28 29 30 31 32 33 34 35 36 37 38 39 40 41 42 43 44 45 46 47 48 49 50

000
ASUS43 KMPX 232101
RWRMN
WEATHER ROUNDUP FOR MINNESOTA
NATIONAL WEATHER SERVICE TWIN CITIES/CHANHASSEN MN
400 PM CDT THU OCT 23 2014


NOTE: "FAIR" INDICATES FEW OR NO CLOUDS BELOW 12,000 FEET WITH NO
SIGNIFICANT WEATHER AND/OR OBSTRUCTIONS TO VISIBILITY. N/A MEANS
CURRENT SKY AND/OR WEATHER CONDITIONS ARE NOT AVAILABLE.

MNZ060>063-068>070-232200-
   Twin Cities Metro

CITY           SKY/WX    TMP DP  RH WIND       PRES   REMARKS
TWIN CITIES    SUNNY     67  47  48 SW5       29.95F
ST PAUL        SUNNY     67  49  52 SW6       29.96S
CRYSTAL        SUNNY     67  47  48 W3        29.94F
BLAINE         SUNNY     68  54  60 W3        29.95S
LAKEVILLE      SUNNY     66  46  48 W5        29.96S
EDEN PRAIRIE   SUNNY     68  47  46 VRB5      29.94F
SOUTH ST PAUL  MOSUNNY   67  47  48 NW5       29.95S
LAKE ELMO      FAIR      64  54  68 SW6       29.97S
$$
MNZ001>005-007-008-013>017-022>024-027-028-232200-
   Northwest Minnesota

CITY           SKY/WX    TMP DP  RH WIND       PRES   REMARKS
BEMIDJI        SUNNY     67  36  32 SW9       29.87S
HALLOCK        MOSUNNY   68  37  32 SW14      29.78F
ROSEAU         MOSUNNY   66  43  42 SW12      29.80S
WARROAD        MOSUNNY   64  43  45 SW13G23   29.81S
THIEF RVR FALL SUNNY     66  43  42 SW13      29.84S
FOSSTON        SUNNY     68  41  37 SW13G20   29.86F
DETROIT LAKES  SUNNY     66  37  34 SW10      29.89F
MOORHEAD       SUNNY     72  27  18 S14       29.86S
PARK RAPIDS    SUNNY     67  36  31 SW15      29.89F
MAHNOMEN       FAIR      67  38  35 SW13      29.86F
$$
MNZ006-009>011-018-025>026-232200-
   North Central Minnesota

CITY           SKY/WX    TMP DP  RH WIND       PRES   REMARKS
BAUDETTE       SUNNY     66  37  34 W10G23    29.81S
FLAG ISLAND    PTSUNNY   59  45  58 S10       29.77S
INTL FALLS     SUNNY     67  39  35 W16G25    29.82F
WASKISH        SUNNY     64  43  45 SW9       29.85S
BIG FORK       SUNNY     66  45  45 SW8       29.87F
LONGVILLE      SUNNY     66  41  39 SW6       29.90S
GRAND RAPIDS   SUNNY     64  43  45 SW7       29.90S
CRANE LAKE     MOSUNNY   64  45  48 W5        29.87S
ORR            SUNNY     64  43  45 SW10      29.84S
COOK           SUNNY     63  48  59 S9        29.88F
WALKER         FAIR      65  43  44 S10       29.88S
$$
MNZ012-019>021-037-232200-
   Northeast Minnesota

CITY           SKY/WX    TMP DP  RH WIND       PRES   REMARKS
DULUTH         MOSUNNY   57  48  72 SW7       29.93F
ELY            SUNNY     57  46  67 S7        29.90S
HIBBING        SUNNY     59  48  67 VRB5      29.91F
EVELETH        SUNNY     57  50  77 S7        29.92S
DULUTH HARBOR  MOSUNNY   57  52  82 SW8       29.94F
TWO HARBORS    CLOUDY    55  43  62 S5        29.93S
SILVER BAY     PTSUNNY   54  50  87 S7        29.93R
GRAND MARAIS     N/A     47  47 100 SW3       29.95S
G MARAIS ARPRT FOG       45  43  93 S5        29.94S VSB 1/2
$$
MNZ029>031-032-039>041-046>048-054>057-064-232200-
   West Central Minnesota

CITY           SKY/WX    TMP DP  RH WIND       PRES   REMARKS
FERGUS FALLS   SUNNY     70  30  23 SW12      29.89S
WHEATON        SUNNY     70  37  30 SW13      29.90S
MORRIS         SUNNY     72  39  30 SW10      29.90S
ALEXANDRIA     SUNNY     67  41  38 SW12      29.93S
ELBOW LAKE     FAIR      69  38  31 SW12G17   29.90S
WADENA         SUNNY     66  37  34 SW9       29.90S
GLENWOOD       SUNNY     68  41  37 SW10      29.93S
APPLETON       SUNNY     73  30  20 SW6       29.91S
BENSON         SUNNY     70  39  32 SW8       29.92S
ORTONVILLE     SUNNY     72  39  30 SW10      29.91S
MADISON        SUNNY     73  37  27 SW13      29.92S
WILLMAR          N/A     70  32  24 SW10      29.94F
$$
MNZ033>034-036-042>043-049>051-058-059-232200-
   Central Minnesota

CITY           SKY/WX    TMP DP  RH WIND       PRES   REMARKS
ST CLOUD       SUNNY     70  47  43 SW8       29.93F
SAUK CENTRE    FAIR      68  38  33 SW8       29.93S
PAYNESVILLE    SUNNY     66  36  33 S10       29.94S
AITKIN         SUNNY     66  48  52 S3        29.90S
PINE RIVER     SUNNY     66  45  45 S9        29.93S
BRAINERD       SUNNY     66  44  45 S6        29.91F
STAPLES        SUNNY     66  37  34 SW10      29.90F
LONG PRAIRIE   FAIR      66  37  34 S8        29.92F
LITTLE FALLS   SUNNY     68  34  28 W7        29.92S
LITCHFIELD     SUNNY     70  39  32 W6        29.94F
BUFFALO        SUNNY     66  48  52 SW3       29.96S
MAPLE LAKE     SUNNY     68  51  55 S5        29.95S
$$
MNZ037-044-045-052-053-232200-
   East Central Minnesota

CITY           SKY/WX    TMP DP  RH WIND       PRES   REMARKS
PRINCETON      SUNNY     66  52  59 SW5       29.94F
MORA           SUNNY     63  50  63 SW5       29.96R
CAMBRIDGE      SUNNY     68  52  56 CALM      29.92F
RUSH CITY      MOSUNNY   64  50  59 CALM      29.94F
MOOSE LAKE     SUNNY     61  50  67 S5        29.92S
HINCKLEY       FAIR      61  52  72 S3        29.94F
CLOQUET        SUNNY     57  48  72 S6        29.93F
MCGREGOR       SUNNY     63  50  63 S3        29.92F
$$
MNZ071>073-080-081-089-090-097-098-232200-
   Southwest Minnesota

CITY           SKY/WX    TMP DP  RH WIND       PRES   REMARKS
MONTEVIDEO     SUNNY     73  43  33 W7        29.93S
GRANITE FALLS  SUNNY     71  37  28 SW6       29.94F
CANBY          SUNNY     71  42  35 SW7G17    29.93F
MARSHALL       SUNNY     72  37  28 SW14      29.93F
REDWOOD FALLS  SUNNY     72  36  26 W8        29.94F
OLIVIA         SUNNY     70  37  30 SW7       29.94S
PIPESTONE      SUNNY     68  41  37 SW12      29.97S
WINDOM         SUNNY     72  30  21 W9        29.97S
WORTHINGTON    SUNNY     68  41  37 SW10      29.99S
JACKSON        SUNNY     70  32  24 SW7       29.98S
TRACY          SUNNY     71  38  29 SW9       29.96S
SLAYTON        SUNNY     68  38  33 SW10      29.98S
$$
MNZ065>067-074>077-082>085-091>093-232200-
   South Central Minnesota

CITY           SKY/WX    TMP DP  RH WIND       PRES   REMARKS
MANKATO        SUNNY     70  39  32 NW9       29.96S
NEW ULM        SUNNY     70  43  37 W7        29.95S
ST JAMES       SUNNY     73  34  23 W7        29.96F
FAIRMONT       SUNNY     72   9   8 W12       29.97F
GLENCOE        SUNNY     70  45  40 W7        29.95S
FARIBAULT      SUNNY     68  48  49 CALM      29.97S
OWATONNA       SUNNY     68  45  42 NW5       29.97F
WASECA         SUNNY     68  32  26 W6        29.98S
ALBERT LEA     SUNNY     68  46  45 W5        29.98S
$$
MNZ078>079-086>088-094>096-232200-
   Southeast Minnesota

CITY           SKY/WX    TMP DP  RH WIND       PRES   REMARKS
ROCHESTER      MOSUNNY   57  50  77 SW5       30.01S
RED WING       PTSUNNY   59  52  77 SE5       29.97F
STANTON        SUNNY     66  51  57 CALM      29.95F
DODGE CENTER   SUNNY     63  54  72 CALM      29.99S HAZE
WINONA         CLOUDY    54  50  87 CALM      30.01S
AUSTIN         SUNNY     63  52  67 CALM      29.99S
PRESTON        CLOUDY    52  50  93 CALM      30.01S FOG
$$
ABBREVIATIONS USED IN REMARKS
   TC - TEMPERATURES IN CELSIUS
  WCI - WIND CHILL INDEX
   HX - HEAT INDEX
  VSB - VISIBILITY
$$



USA.gov is the U.S. government's official web portal to all federal, state and local government web resources and services.